Date String (YYYY-MM-DD hh:mm:ss) UTC,Instrument flags,Ambient pressure (hPa),Sample flow (lpm),Bypass flow (lpm),Sample temperature (°C),Ambient temperature (°C),ASC tube jacket temperature (°C),LED temperature (°C),Box temperature (°C),Sample RH (%),Span deviation,Mass concentration (μg/m³),Mass concentration (μg/m³),Mass concentration (μg/m³)
DateTimeUTC,F1_M11,P_M11,Q1_M11,Q2_M11,T1_M11,T2_M11,T3_M11,T4_M11,T5_M11,U1_M11,ZSPAN_M11,X0_M11,X2_M11,X1_M11
2023-05-08 20:00:00,,0829.0,5.01,0.00,29.5,26.7,00.0,37.9,31.1,14.0,0002.4,0016.68,0006.35,0005.09
2023-05-08 20:01:00,,0828.9,4.99,0.00,29.5,27.0,00.0,37.9,31.1,14.0,0002.4,0016.69,0006.33,0005.07
2023-05-08 20:02:00,,0829.0,5.00,0.00,29.5,27.3,00.0,37.9,31.2,13.7,0002.7,0015.89,0006.36,0005.07
2023-05-08 20:03:00,,0829.0,5.00,0.00,29.6,27.6,00.0,37.9,31.2,13.5,0002.6,0016.29,0006.40,0005.05
2023-05-08 20:04:00,,0828.9,5.01,0.00,29.6,27.8,00.0,37.9,31.3,13.5,0003.2,0016.36,0006.36,0005.02
2023-05-08 20:05:00,,0828.9,5.00,0.00,29.6,27.9,00.0,37.9,31.3,13.7,0003.1,0015.40,0006.29,0005.00
2023-05-08 20:06:00,,0828.9,4.99,0.00,29.6,28.1,00.0,37.9,31.4,13.8,0003.2,0014.88,0006.20,0004.96
2023-05-08 20:07:00,,0828.8,4.98,0.00,29.7,28.2,00.0,38.0,31.4,13.7,0002.7,0014.32,0006.15,0004.92
2023-05-08 20:08:00,,0828.9,5.01,0.00,29.7,28.3,00.0,38.0,31.4,13.7,0002.7,0014.10,0006.13,0004.87
2023-05-08 20:09:00,,0828.8,5.00,0.00,29.7,28.4,00.0,38.0,31.5,13.9,0002.9,0013.62,0006.00,0004.85
2023-05-08 20:10:00,,0828.8,4.99,0.00,29.8,28.5,00.0,38.0,31.5,13.7,0003.3,0013.12,0005.91,0004.80
2023-05-08 20:11:00,,0828.9,5.00,0.00,29.8,28.6,00.0,38.0,31.6,13.8,0003.1,0013.07,0005.85,0004.75
2023-05-08 20:12:00,,0828.9,5.01,0.00,29.8,28.7,00.0,38.1,31.6,13.8,0003.0,0013.45,0005.77,0004.70
2023-05-08 20:13:00,,0828.8,5.00,0.00,29.9,28.4,00.0,38.1,31.6,13.5,0002.2,0014.21,0005.73,0004.65
2023-05-08 20:14:00,,0828.8,4.99,0.00,29.8,26.8,00.0,38.0,31.3,13.5,0002.7,0013.53,0005.68,0004.60
2023-05-08 20:15:00,,0828.8,5.00,0.00,29.8,26.1,00.0,38.0,31.2,13.7,0002.5,0013.85,0005.69,0004.58
2023-05-08 20:16:00,,0828.8,5.02,0.00,29.7,26.2,00.0,38.0,31.1,14.0,0002.2,0013.51,0005.67,0004.53
2023-05-08 20:17:00,,0828.8,5.00,0.00,29.6,26.5,00.0,38.0,31.1,14.8,0002.5,0013.72,0005.73,0004.56
2023-05-08 20:18:00,,0828.8,5.00,0.00,29.6,26.8,00.0,38.0,31.2,14.9,0002.8,0014.51,0005.84,0004.59
2023-05-08 20:19:00,,0828.7,5.00,0.00,29.6,27.1,00.0,38.0,31.2,15.0,0002.5,0014.40,0005.86,0004.64
2023-05-08 20:20:00,,0828.8,5.00,0.00,29.6,27.4,00.0,38.0,31.3,15.3,0002.2,0014.32,0005.90,0004.66
2023-05-08 20:21:00,,0828.8,5.01,0.00,29.6,27.6,00.0,38.0,31.3,15.4,0002.3,0014.95,0005.97,0004.72
2023-05-08 20:22:00,,0828.8,4.99,0.00,29.7,27.8,00.0,38.0,31.4,14.5,0002.4,0015.39,0006.05,0004.78
2023-05-08 20:23:00,,0828.8,4.99,0.00,29.7,28.0,00.0,38.0,31.4,13.8,0002.4,0015.57,0006.08,0004.82
2023-05-08 20:24:00,,0828.8,5.00,0.00,29.7,28.1,00.0,38.0,31.4,14.0,0002.5,0015.36,0006.06,0004.83
2023-05-08 20:25:00,,0828.8,5.01,0.00,29.7,28.3,00.0,38.0,31.5,14.0,0002.3,0015.60,0006.07,0004.85
2023-05-08 20:26:00,,0828.7,5.00,0.00,29.8,28.4,00.0,38.0,31.5,14.4,0002.0,0015.14,0006.05,0004.86
2023-05-08 20:27:00,,0828.8,4.99,0.00,29.8,28.5,00.0,38.1,31.5,14.1,0002.7,0015.10,0006.05,0004.87
2023-05-08 20:28:00,,0828.8,5.00,0.00,29.8,28.5,00.0,38.1,31.6,13.7,0002.4,0015.14,0005.98,0004.84
2023-05-08 20:29:00,,0828.8,4.98,0.00,29.8,27.5,00.0,38.1,31.4,13.9,0002.0,0014.44,0005.87,0004.79
2023-05-08 20:30:00,,0828.7,5.01,0.00,29.8,26.2,00.0,38.0,31.2,13.9,0002.5,0014.10,0005.79,0004.74
2023-05-08 20:31:00,,0828.7,5.01,0.00,29.7,26.1,00.0,37.9,31.1,14.0,0002.8,0014.89,0005.74,0004.69
2023-05-08 20:32:00,,0828.7,5.00,0.00,29.7,26.4,00.0,37.9,31.1,14.2,0001.9,0015.21,0005.68,0004.65
2023-05-08 20:33:00,,0828.7,4.98,0.00,29.6,26.7,00.0,38.0,31.1,13.5,0001.6,0014.67,0005.62,0004.57
2023-05-08 20:34:00,,0828.7,5.01,0.00,29.6,27.0,00.0,38.0,31.2,13.0,0002.5,0014.42,0005.55,0004.50
2023-05-08 20:35:00,,0828.8,5.01,0.00,29.6,27.3,00.0,38.0,31.3,13.4,0002.8,0013.90,0005.53,0004.47
2023-05-08 20:36:00,,0828.7,4.98,0.00,29.6,27.6,00.0,38.0,31.3,13.6,0002.4,0013.76,0005.52,0004.44
2023-05-08 20:37:00,,0828.8,5.00,0.00,29.7,27.8,00.0,38.0,31.4,13.6,0002.8,0013.35,0005.48,0004.40
2023-05-08 20:38:00,,0828.8,5.00,0.00,29.7,28.0,00.0,38.0,31.4,13.6,0003.0,0013.44,0005.52,0004.38
2023-05-08 20:39:00,,0828.8,5.01,0.00,29.7,28.1,00.0,38.0,31.4,14.0,0002.8,0013.21,0005.50,0004.35
2023-05-08 20:40:00,,0828.8,4.99,0.00,29.7,28.3,00.0,38.0,31.5,14.1,0003.8,0013.19,0005.51,0004.35
2023-05-08 20:41:00,,0828.7,5.00,0.00,29.8,28.4,00.0,38.1,31.5,14.1,0003.7,0013.24,0005.50,0004.33
2023-05-08 20:42:00,,0828.7,5.01,0.00,29.8,28.5,00.0,38.1,31.6,14.3,0003.4,0012.67,0005.48,0004.31
2023-05-08 20:43:00,,0828.7,5.00,0.00,29.8,28.1,00.0,38.1,31.5,14.4,0003.6,0011.42,0005.45,0004.29
2023-05-08 20:44:00,,0828.7,4.99,0.00,29.8,26.5,00.0,38.0,31.3,14.5,0003.8,0011.44,0005.45,0004.30
2023-05-08 20:45:00,,0828.6,5.01,0.00,29.8,26.1,00.0,38.0,31.2,13.9,0003.7,0011.25,0005.46,0004.32
2023-05-08 20:46:00,,0828.7,5.01,0.00,29.7,26.3,00.0,38.0,31.1,14.0,0003.9,0011.32,0005.46,0004.30
2023-05-08 20:47:00,,0828.7,5.00,0.00,29.6,26.6,00.0,38.0,31.2,13.2,0004.4,0011.41,0005.42,0004.27
2023-05-08 20:48:00,,0828.7,4.99,0.00,29.6,26.9,00.0,38.0,31.2,13.2,0004.1,0011.72,0005.39,0004.24
2023-05-08 20:49:00,,0828.7,4.99,0.00,29.6,27.2,00.0,38.0,31.3,13.3,0003.6,0011.88,0005.32,0004.20
2023-05-08 20:50:00,,0828.7,5.01,0.00,29.6,27.4,00.0,38.0,31.3,13.3,0003.3,0012.03,0005.28,0004.17
2023-05-08 20:51:00,,0828.7,5.01,0.00,29.6,27.6,00.0,38.0,31.3,13.0,0002.8,0012.47,0005.21,0004.14
2023-05-08 20:52:00,,0828.6,5.01,0.00,29.6,27.8,00.0,38.0,31.3,13.1,0001.9,0012.62,0005.14,0004.10
2023-05-08 20:53:00,,0828.6,4.98,0.00,29.7,27.9,00.0,38.0,31.4,13.0,0002.3,0012.68,0005.13,0004.07
2023-05-08 20:54:00,,0828.6,5.00,0.00,29.7,28.1,00.0,38.0,31.4,13.3,0001.0,0012.72,0005.08,0004.02
2023-05-08 20:55:00,,0828.6,5.00,0.00,29.7,28.2,00.0,38.0,31.4,13.6,0000.0,0013.18,0004.98,0003.96
2023-05-08 20:56:00,,0828.6,4.99,0.00,29.7,28.3,00.0,38.0,31.5,13.9,-000.3,0013.08,0004.90,0003.89
2023-05-08 20:57:00,,0828.6,5.00,0.00,29.7,28.4,00.0,38.1,31.5,12.9,-000.9,0012.93,0004.79,0003.84
2023-05-08 20:58:00,,0828.6,5.01,0.00,29.8,28.4,00.0,38.1,31.5,12.0,-001.1,0013.22,0004.68,0003.74
2023-05-08 20:59:00,,0828.6,4.99,0.00,29.8,27.1,00.0,38.0,31.3,11.9,-001.4,0013.04,0004.55,0003.63
